Wind_Speed
29 32 32 35 38 38 37 35 33 30 32 35 34 35 34 31 34 34 35 38 38 40 44 47 47 47 48 49 50 51 53 53 54 52 49 50 50 46 52 54 53 55 55 57
23 24 27 29 29 29 28 27 28 29 34 38 33 35 35 32 31 33 33 33 33 36 39 41 45 49 51 52 53 52 53 53 55 57 56 52 51 48 49 52 56 57 57 58
27 29 29 29 30 31 30 31 34 35 37 39 35 39 37 34 34 36 35 34 37 39 41 43 43 44 44 45 49 52 53 54 54 54 54 54 52 51 52 54 55 56 56 59
30 31 32 33 32 35 33 36 37 37 36 39 42 43 37 36 40 35 36 38 40 44 47 46 48 48 46 46 47 49 51 51 54 56 56 57 56 55 54 53 53 54 56 56
32 34 34 32 34 37 30 38 36 37 38 40 40 45 42 40 39 35 39 42 47 46 50 51 51 51 50 49 50 51 50 52 54 55 57 58 58 58 57 56 55 54 56 55
30 32 30 31 36 37 36 36 38 40 42 45 39 43 43 41 38 31 35 39 44 47 50 52 54 55 55 53 52 55 57 57 57 58 59 60 60 59 60 60 59 57 56 55
31 33 32 34 37 37 38 38 40 39 35 40 34 41 42 42 37 35 32 41 45 45 49 51 53 55 57 56 55 55 58 61 62 61 61 62 61 62 61 62 61 61 59 59
37 33 38 39 38 37 37 36 37 42 40 40 37 43 40 51 46 41 44 39 41 43 45 47 50 53 56 57 56 56 57 59 63 65 65 64 62 61 60 61 62 61 63 58
35 34 38 36 34 35 35 39 38 47 47 52 47 47 47 45 47 45 41 41 44 43 45 45 45 47 50 55 58 58 57 58 59 61 64 65 65 62 59 59 61 62 63 65
33 38 35 36 38 36 38 40 44 43 48 49 46 37 35 46 50 53 46 45 45 45 43 44 44 44 46 49 52 55 57 59 61 63 64 65 66 65 62 62 64 66 65 66
40 44 40 42 40 39 38 42 40 42 44 47 47 40 42 45 50 50 51 50 48 46 46 46 47 49 48 49 50 52 56 60 64 65 67 67 65 65 61 62 61 64 66 63
36 38 37 36 35 37 37 37 37 41 42 43 46 47 43 50 50 47 48 49 49 47 48 49 49 48 48 50 48 48 47 50 52 57 63 68 66 69 67 61 60 61 64 65
36 40 42 41 37 37 38 36 37 38 42 41 43 43 45 44 45 47 47 48 50 48 45 44 46 45 40 38 38 38 37 36 41 45 51 58 61 60 60 56 64 64 63 62
39 39 41 41 40 40 40 37 37 40 45 42 44 41 38 42 46 47 46 49 48 45 43 40 37 36 36 35 36 35 35 36 36 36 45 47 51 49 51 54 62 68 64 60
37 39 37 37 37 38 40 37 37 41 40 42 39 39 38 41 44 51 44 40 41 41 41 39 35 34 36 36 39 42 39 38 38 39 43 55 50 47 45 48 57 61 62 59
31 30 30 30 32 35 35 35 36 35 34 36 33 32 33 38 37 37 35 36 38 39 41 43 42 41 41 40 39 38 39 36 37 36 38 46 47 42 45 45 45 54 58 41
26 27 28 28 30 31 28 28 28 26 25 24 23 25 27 29 30 30 31 36 39 40 39 42 44 47 49 50 47 43 40 37 33 36 35 35 44 42 44 45 49 57 46 40
23 25 27 26 28 26 23 20 16 17 21 22 22 24 26 27 29 30 34 42 45 47 47 49 49 50 49 47 45 44 44 43 41 37 34 35 39 41 43 44 45 48 50 48
20 20 22 22 21 19 14 14 15 18 18 20 20 21 24 29 34 34 44 50 54 55 54 53 50 50 47 45 45 40 38 41 45 44 41 40 41 45 50 49 50 51 49 48
17 18 19 18 17 15 14 17 19 23 17 16 19 23 29 36 42 44 47 45 43 44 44 44 45 43 39 36 36 35 32 34 39 45 46 47 45 46 46 47 47 48 50 53
16 17 14 16 19 19 16 22 25 19 15 16 21 28 36 39 40 40 41 41 42 42 43 45 45 44 41 40 38 32 28 28 30 34 43 46 52 52 49 53 56 57 57 56
17 13 12 19 19 21 22 23 19 11 15 21 27 34 33 36 38 39 38 37 39 39 38 38 40 42 44 42 38 37 34 33 32 30 35 41 46 50 56 59 59 57 57 61
18 22 23 22 21 23 24 18 9 12 17 24 30 30 34 36 37 36 33 27 23 25 26 26 26 29 34 38 35 35 37 37 37 33 31 36 40 44 49 51 55 61 60 60
16 19 23 28 28 25 15 9 10 16 21 26 31 33 33 32 32 28 19 22 22 25 26 22 23 22 25 31 34 36 37 37 32 33 33 35 38 41 45 48 52 56 58 58
16 13 16 17 14 12 10 8 12 17 25 29 34 32 33 36 36 29 16 19 27 26 28 24 17 12 14 21 26 26 26 28 28 30 31 33 38 39 42 46 48 50 53 57
17 15 13 12 11 11 8 10 13 19 26 31 33 31 30 29 33 34 36 35 34 31 26 21 16 12 15 16 20 22 27 28 24 26 25 29 34 35 38 46 49 47 49 55
Wind_Direction
243 245 247 247 248 250 253 256 257 255 257 253 255 257 259 252 255 256 258 260 259 257 256 258 259 258 257 257 256 256 260 263 265 263 259 258 260 253 250 252 252 253 255 259
242 244 244 248 252 253 254 256 256 252 253 256 254 257 259 260 261 263 260 261 262 259 258 256 256 257 256 257 259 259 258 258 260 263 265 262 260 256 247 247 249 253 257 258
246 248 249 250 254 255 254 256 256 256 260 265 266 264 264 266 264 261 262 260 258 258 257 256 255 257 259 259 260 262 262 262 261 261 260 260 258 255 254 254 252 253 257 259
247 250 249 251 254 256 256 258 257 261 262 267 268 267 264 266 264 264 266 262 259 257 257 257 256 256 256 258 257 257 259 261 261 260 260 261 261 262 260 256 256 259 260 259
251 251 253 256 257 258 257 258 262 263 264 263 261 271 274 264 262 267 265 262 259 260 258 259 258 256 255 254 254 255 254 255 257 258 258 259 260 260 261 261 260 257 257 259
253 254 252 253 256 261 264 267 266 265 267 265 271 267 269 273 275 265 262 261 260 261 262 263 263 263 261 258 255 255 255 253 252 253 255 257 257 258 258 258 257 256 256 257
246 251 252 255 260 265 267 267 267 268 270 277 284 275 279 283 282 280 263 262 263 261 261 263 265 266 266 264 260 255 254 255 255 253 253 254 255 257 255 254 253 250 250 252
250 250 255 256 258 258 260 268 271 278 274 272 261 276 290 288 288 282 276 267 266 265 263 262 262 263 265 267 266 263 259 255 254 255 255 253 253 254 256 256 252 247 248 249
269 267 266 264 261 263 266 262 275 270 276 278 283 285 284 283 285 280 281 280 278 276 271 265 263 260 258 260 262 263 262 259 257 256 255 255 255 253 253 253 254 254 253 253
272 271 265 267 265 263 265 266 270 272 275 275 279 283 287 286 285 288 291 287 282 278 276 275 270 263 259 259 259 261 261 261 260 259 258 258 257 255 251 251 250 248 248 247
270 268 270 267 268 269 266 270 271 273 269 277 282 280 278 279 281 285 289 287 285 284 281 278 275 273 272 270 266 263 260 259 258 257 257 255 253 248 246 246 247 248 249 246
279 279 274 268 269 268 266 266 266 267 273 275 275 280 275 276 280 282 281 284 283 283 280 279 279 279 277 276 273 271 266 262 259 257 257 255 251 250 247 246 249 247 249 250
273 271 274 275 268 266 267 268 269 269 270 271 273 277 279 278 279 282 281 282 283 282 281 280 279 277 272 271 275 274 279 279 271 260 254 251 251 251 249 246 242 244 247 247
275 268 268 268 267 271 272 270 271 272 273 278 275 276 269 271 277 280 283 284 284 288 286 282 275 272 274 270 270 276 283 287 281 272 251 244 250 246 244 241 246 242 245 250
276 272 267 265 266 266 270 273 275 276 280 277 278 277 277 273 274 279 282 283 284 284 282 279 275 273 274 274 277 277 279 282 278 273 266 248 243 239 227 236 237 242 244 246
281 278 274 273 274 276 280 282 280 278 274 273 273 275 266 266 274 277 278 280 281 280 280 275 271 271 271 274 278 280 277 280 273 278 269 253 249 234 242 243 225 247 248 245
274 273 274 275 277 277 280 279 279 278 279 280 280 275 274 275 275 279 283 284 283 284 283 279 275 271 269 270 273 275 273 272 276 270 270 252 243 236 237 239 242 246 252 251
278 271 270 275 277 280 280 272 279 293 290 286 283 280 280 279 280 287 290 288 287 285 283 280 278 277 275 273 273 272 269 264 264 268 264 251 244 241 238 233 239 250 253 248
271 270 276 275 276 274 269 266 288 311 295 288 289 285 288 292 294 298 294 291 290 288 285 282 281 280 279 278 277 274 268 264 263 259 259 256 248 244 244 249 252 244 250 249
274 267 265 268 264 275 267 282 299 310 297 287 291 296 296 295 293 292 289 288 289 287 286 283 278 277 279 275 274 271 272 269 262 259 253 248 247 245 243 244 245 245 249 246
281 269 274 258 269 275 272 288 297 295 295 294 297 301 298 302 308 309 305 298 296 291 286 280 274 273 273 270 271 267 274 271 268 264 259 252 247 246 244 244 244 246 245 242
268 253 258 253 268 276 286 295 292 287 296 304 310 309 307 308 314 315 313 311 307 303 295 285 276 269 264 265 265 263 271 272 280 275 262 257 249 248 246 246 245 246 245 244
264 243 244 255 265 276 283 284 277 290 305 312 320 320 316 323 324 321 319 310 323 324 320 308 297 274 264 258 264 266 267 274 281 279 266 257 255 251 249 249 249 248 248 246
264 253 254 258 265 267 256 251 285 305 316 329 332 329 326 327 319 310 316 342 338 336 322 315 303 282 266 261 264 270 273 278 274 274 269 262 256 252 249 247 246 246 246 246
265 266 264 262 249 224 232 268 298 315 328 333 332 327 319 324 328 306 304 329 335 333 332 327 322 306 275 264 265 269 276 280 277 274 273 270 262 259 255 254 252 249 247 246
273 268 251 223 198 213 246 284 312 323 326 327 329 327 333 314 327 332 338 349 341 332 326 322 320 307 292 283 281 280 279 288 295 286 279 271 274 278 269 263 261 259 252 246
Height
5764 5765 5767 5766 5767 5768 5770 5771 5773 5774 5772 5770 5772 5771 5773 5776 5776 5778 5778 5778 5779 5781 5781 5780 5780 5781 5781 5781 5782 5783 5785 5787 5789 5791 5794 5795 5797 5799 5800 5802 5804 5804 5805 5805
5758 5759 5758 5759 5760 5761 5763 5764 5765 5765 5762 5761 5765 5764 5765 5768 5770 5769 5770 5771 5771 5770 5769 5769 5768 5767 5769 5770 5771 5773 5775 5776 5777 5778 5780 5784 5784 5785 5787 5788 5789 5790 5791 5791
5751 5751 5752 5753 5754 5755 5756 5757 5755 5756 5755 5753 5758 5756 5759 5761 5762 5761 5763 5764 5761 5760 5758 5757 5757 5757 5759 5761 5761 5762 5763 5764 5765 5765 5766 5767 5770 5773 5776 5777 5778 5779 5780 5779
5743 5744 5745 5746 5747 5746 5749 5747 5748 5749 5750 5748 5745 5744 5750 5752 5749 5752 5752 5752 5752 5749 5748 5749 5748 5748 5749 5749 5749 5750 5750 5751 5752 5752 5753 5754 5757 5758 5761 5763 5765 5766 5767 5768
5735 5734 5735 5738 5737 5735 5743 5737 5739 5739 5739 5738 5739 5734 5736 5740 5740 5744 5742 5741 5737 5738 5736 5736 5736 5737 5738 5739 5738 5737 5738 5739 5739 5739 5740 5741 5741 5744 5746 5748 5750 5753 5753 5754
5726 5725 5728 5729 5726 5726 5729 5730 5728 5728 5727 5723 5730 5727 5727 5726 5728 5733 5730 5728 5725 5724 5723 5722 5722 5722 5723 5726 5726 5726 5725 5725 5725 5725 5726 5727 5729 5732 5732 5734 5736 5738 5740 5742
5717 5716 5719 5718 5718 5718 5719 5719 5717 5718 5716 5714 5717 5711 5711 5712 5715 5716 5719 5715 5713 5714 5711 5710 5709 5707 5706 5707 5709 5711 5711 5711 5710 5712 5712 5713 5716 5718 5720 5721 5723 5724 5726 5727
5706 5710 5707 5708 5709 5711 5709 5709 5709 5704 5704 5704 5706 5700 5703 5695 5698 5701 5698 5703 5703 5701 5700 5698 5696 5693 5691 5690 5691 5692 5693 5694 5694 5694 5696 5697 5700 5702 5706 5709 5709 5711 5710 5713
5699 5701 5698 5699 5701 5703 5704 5701 5701 5692 5693 5688 5692 5691 5688 5688 5684 5683 5685 5685 5684 5684 5683 5684 5682 5680 5679 5676 5675 5674 5675 5676 5677 5678 5679 5681 5684 5686 5689 5691 5693 5694 5695 5696
5688 5685 5690 5690 5688 5691 5689 5691 5687 5687 5681 5678 5681 5681 5679 5673 5671 5667 5669 5669 5669 5668 5667 5666 5665 5665 5665 5663 5662 5660 5659 5658 5658 5658 5660 5662 5666 5669 5672 5674 5677 5675 5678 5679
5679 5676 5681 5678 5679 5678 5678 5674 5676 5674 5673 5667 5668 5672 5666 5664 5659 5658 5656 5653 5652 5652 5650 5648 5646 5645 5646 5645 5644 5644 5643 5641 5640 5640 5640 5641 5645 5648 5652 5655 5657 5658 5661 5664
5667 5665 5665 5668 5668 5666 5665 5666 5665 5661 5662 5660 5656 5657 5658 5651 5649 5648 5644 5641 5639 5638 5635 5633 5631 5629 5628 5626 5624 5623 5623 5623 5623 5623 5622 5622 5626 5630 5635 5639 5641 5643 5647 5651
5659 5655 5653 5654 5657 5656 5654 5655 5653 5651 5648 5650 5647 5649 5640 5640 5638 5633 5631 5629 5626 5624 5622 5620 5617 5614 5613 5612 5610 5609 5606 5605 5603 5603 5604 5605 5607 5611 5616 5621 5625 5628 5632 5636
5645 5646 5645 5644 5644 5643 5642 5642 5642 5640 5636 5638 5634 5636 5633 5631 5624 5620 5619 5618 5612 5609 5607 5604 5603 5601 5601 5599 5598 5596 5593 5590 5589 5589 5590 5591 5594 5597 5598 5605 5610 5613 5618 5623
5633 5632 5632 5632 5632 5631 5630 5631 5631 5627 5626 5623 5624 5621 5620 5617 5614 5611 5608 5604 5601 5598 5594 5592 5591 5590 5588 5587 5586 5584 5582 5580 5578 5577 5578 5579 5579 5586 5587 5592 5596 5600 5605 5610
5622 5621 5620 5621 5621 5619 5619 5619 5617 5617 5615 5613 5612 5613 5607 5605 5604 5601 5598 5595 5591 5588 5585 5582 5580 5578 5577 5575 5573 5572 5570 5568 5566 5565 5563 5563 5568 5573 5577 5579 5581 5589 5591 5596
5614 5614 5613 5614 5613 5611 5613 5609 5608 5606 5605 5605 5604 5603 5600 5597 5594 5593 5590 5585 5580 5578 5575 5570 5567 5565 5563 5562 5560 5560 5559 5557 5556 5555 5555 5555 5557 5563 5568 5571 5575 5579 5583 5584
5607 5606 5605 5606 5604 5605 5604 5602 5602 5601 5599 5597 5596 5593 5591 5589 5587 5585 5581 5573 5569 5564 5560 5556 5553 5550 5548 5546 5546 5546 5545 5544 5544 5544 5545 5546 5549 5552 5556 5559 5564 5568 5571 5575
5600 5599 5598 5598 5597 5598 5597 5597 5597 5595 5593 5590 5589 5586 5584 5580 5576 5577 5567 5559 5553 5547 5542 5538 5536 5533 5532 5531 5530 5529 5529 5528 5527 5529 5532 5534 5535 5539 5542 5546 5550 5554 5558 5562
5594 5593 5593 5593 5593 5593 5594 5592 5590 5589 5588 5585 5582 5580 5577 5572 5566 5564 5555 5547 5541 5534 5528 5524 5520 5518 5518 5518 5516 5515 5515 5514 5514 5514 5515 5516 5519 5522 5526 5531 5535 5539 5543 5547
5589 5588 5588 5587 5587 5588 5588 5586 5585 5583 5584 5579 5577 5573 5567 5561 5554 5547 5539 5532 5525 5519 5514 5509 5508 5505 5504 5503 5503 5504 5504 5503 5502 5501 5500 5501 5503 5507 5511 5515 5519 5523 5528 5532
5584 5584 5582 5582 5582 5583 5581 5580 5579 5578 5575 5573 5570 5564 5557 5551 5544 5535 5527 5519 5510 5503 5497 5493 5491 5489 5488 5488 5490 5491 5493 5491 5490 5489 5487 5487 5489 5491 5494 5497 5502 5505 5509 5514
5578 5578 5578 5578 5578 5576 5575 5574 5573 5572 5570 5566 5561 5555 5548 5540 5533 5525 5518 5510 5502 5495 5488 5482 5478 5477 5476 5476 5478 5480 5480 5479 5478 5476 5476 5475 5475 5476 5477 5480 5483 5486 5490 5495
5570 5570 5570 5571 5571 5569 5569 5570 5569 5566 5563 5559 5553 5545 5538 5532 5526 5519 5511 5503 5496 5489 5483 5477 5472 5469 5468 5468 5469 5469 5469 5468 5466 5465 5462 5461 5461 5461 5462 5463 5465 5468 5472 5477
5564 5564 5564 5563 5563 5564 5565 5565 5564 5561 5556 5551 5546 5540 5533 5526 5521 5511 5504 5497 5491 5485 5480 5473 5468 5465 5463 5462 5462 5460 5459 5457 5456 5453 5451 5450 5448 5448 5448 5447 5448 5450 5454 5458
5558 5558 5557 5558 5559 5561 5562 5561 5560 5557 5552 5546 5540 5536 5530 5522 5515 5508 5501 5494 5488 5482 5476 5471 5466 5463 5460 5457 5455 5453 5451 5448 5445 5442 5440 5438 5436 5434 5432 5430 5430 5432 5435 5439